GEFSSE_con_prob3kmehi_174.txt.gz
EHI
0 2 4 5 5 5 4 4 3 3 4 5 5 5 5 3 1 0 0 0 0 0 0 0 1 2 2 1 0 0 0 0 0 0 0 0 0 0 0 0 0 0 0
2 3 4 5 4 4 3 2 3 3 3 4 4 4 3 2 0 0 0 0 0 0 0 0 1 1 1 0 0 0 0 0 0 0 0 0 0 0 0 0 0 0 0
7 5 4 5 5 3 1 1 2 3 3 3 3 3 1 0 0 0 0 0 0 0 0 0 0 0 0 0 1 1 1 0 0 0 0 0 0 0 0 0 0 0 0
12 8 6 8 7 2 0 0 1 1 2 2 2 2 1 0 0 0 0 0 0 0 0 0 0 0 0 0 1 2 1 0 0 0 0 0 0 0 0 0 0 0 0
12 9 10 12 9 3 0 0 0 0 1 1 1 1 0 0 0 0 0 0 0 0 0 0 0 0 0 0 1 1 0 0 0 0 0 0 0 0 0 0 0 0 0
11 8 10 14 10 4 1 0 0 0 0 0 0 0 0 0 0 0 0 0 0 0 0 0 0 0 0 0 0 1 0 0 0 0 0 0 0 0 0 0 0 0 0
14 8 8 12 10 4 1 0 0 0 0 0 0 0 0 0 0 0 0 0 0 1 1 1 0 0 0 0 1 1 1 0 0 0 0 0 0 0 0 0 0 0 0
19 11 8 10 7 3 1 0 0 0 0 0 0 0 0 0 0 1 1 0 0 1 1 1 0 0 0 0 1 1 1 0 0 0 0 0 0 0 0 0 0 0 0
19 14 9 6 4 1 0 0 0 0 0 0 0 0 0 0 0 1 1 0 0 0 1 1 0 0 0 0 1 1 1 0 0 0 0 0 0 0 0 0 0 0 0
16 14 10 5 2 0 0 0 0 0 0 0 0 0 0 0 0 1 1 0 0 0 0 0 0 0 0 0 1 3 2 1 0 0 0 1 1 1 0 0 0 0 0
19 15 11 7 3 1 0 0 0 0 0 0 0 0 0 0 0 0 0 0 0 0 0 0 0 0 0 0 1 3 3 1 0 0 0 1 1 1 0 0 0 0 0
26 19 12 9 5 1 1 1 0 0 0 0 0 0 0 0 0 0 0 0 0 0 0 0 0 0 0 0 1 2 1 0 0 0 1 2 1 0 0 0 0 0 0
28 20 13 9 5 2 1 1 0 0 0 0 0 0 0 0 0 0 0 0 0 0 0 0 0 0 0 0 0 0 0 0 0 0 1 2 2 0 0 0 0 0 0
27 20 12 8 5 3 1 0 0 0 0 0 0 0 1 1 0 0 0 0 0 0 0 0 0 0 0 0 0 0 0 0 0 0 1 2 2 1 0 0 0 0 0
29 21 13 9 6 4 2 1 0 0 0 0 0 1 2 2 1 0 0 0 0 0 0 0 0 0 0 0 0 0 0 0 0 0 1 2 2 2 1 0 0 0 0
39 31 22 16 12 8 3 1 0 0 0 0 0 1 2 3 1 1 1 0 0 0 0 0 0 0 0 0 0 0 0 0 0 0 0 1 2 2 1 0 0 0 0
52 46 37 30 24 16 8 3 2 2 1 0 0 1 3 3 3 2 1 0 0 0 0 0 0 0 0 0 0 0 0 0 0 0 0 0 1 1 1 1 0 0 0
66 60 51 43 36 28 18 10 7 7 5 2 1 2 4 4 3 2 1 0 0 0 0 0 0 0 0 0 0 0 0 0 0 0 0 0 0 0 0 1 2 2 1
76 70 62 55 48 40 32 21 13 11 10 6 4 5 5 5 4 2 0 0 0 0 0 0 0 0 0 0 0 0 0 0 0 0 0 0 0 0 0 1 2 3 3
82 77 73 67 58 49 42 31 20 14 12 10 9 9 8 8 7 4 1 0 0 0 0 0 0 0 0 0 0 0 0 0 0 0 0 0 0 0 0 0 1 3 4
88 85 83 77 67 58 49 36 23 15 12 12 12 12 12 13 13 10 5 1 0 0 0 0 0 0 0 0 0 0 0 0 0 0 0 0 0 0 0 0 0 1 1
94 93 90 83 74 64 51 33 21 14 12 12 13 14 14 16 16 13 7 3 1 0 0 0 0 0 0 0 0 0 0 0 0 0 0 0 0 0 0 0 0 0 0
98 96 93 86 76 64 51 36 24 17 15 14 14 14 14 15 15 12 7 4 2 0 0 0 0 0 0 0 0 0 0 0 0 0 0 0 0 0 0 0 0 1 1
96 95 92 86 77 66 55 45 34 26 21 16 14 14 13 13 14 12 9 5 2 1 1 1 1 1 0 0 0 0 0 0 0 0 0 0 0 0 0 0 1 2 2
88 89 88 84 76 67 60 51 38 28 21 14 11 12 12 13 14 14 11 7 4 3 3 2 2 2 1 1 1 0 0 0 0 0 0 0 0 0 0 0 1 2 2
81 83 83 80 72 65 60 52 38 25 16 11 9 10 12 14 15 14 12 9 6 5 4 3 3 3 2 2 2 1 0 0 0 0 0 0 0 0 0 0 0 1 1

GEFSSE_con_prob3kmehi_180.txt.gz
EHI
0 0 1 1 3 7 9 8 7 6 5 4 3 1 0 0 0 0 0 0 0 0 0 0 0 0 0 0 0 0 0 0 0 0 0 0 0 0 0 0 0 0 0
1 1 1 2 3 6 7 7 7 7 6 5 3 2 0 0 0 0 0 0 0 0 0 0 0 0 0 0 0 0 0 0 0 0 0 0 0 0 0 0 0 0 0
2 2 2 3 3 4 5 5 6 7 7 5 3 1 0 0 0 0 0 0 0 0 0 0 0 0 0 0 0 0 0 1 0 0 0 0 0 0 0 0 0 0 0
3 3 3 3 3 3 3 4 5 6 6 6 3 1 0 0 0 0 0 0 0 0 0 0 0 0 0 0 0 0 0 0 0 0 0 0 0 1 0 0 0 0 0
3 3 4 4 3 3 3 3 4 5 6 5 3 1 0 0 0 0 0 0 0 0 0 0 0 0 0 0 0 1 0 0 0 0 0 0 0 0 0 0 0 0 0
3 3 5 6 4 3 3 3 3 4 4 3 2 1 0 0 0 0 0 1 1 0 0 0 0 0 0 0 1 2 1 0 0 0 0 0 0 0 0 0 0 0 0
4 4 6 8 6 3 2 3 3 2 1 1 1 0 1 1 1 1 1 2 1 0 0 0 0 0 0 0 0 1 0 0 0 0 0 0 0 0 0 0 0 0 0
6 6 7 7 5 3 2 2 2 1 0 0 0 0 1 1 1 2 2 2 2 0 0 0 0 0 0 0 0 0 0 0 0 0 0 0 0 0 0 0 0 0 0
6 6 5 4 3 2 1 1 2 2 1 0 0 0 0 0 1 1 2 2 2 1 0 0 0 0 0 0 1 1 0 0 0 0 0 0 0 0 0 0 0 0 0
4 4 3 2 1 1 0 0 1 2 2 1 0 0 0 0 0 0 1 2 2 1 0 0 0 0 0 0 2 2 1 0 0 0 0 0 0 0 0 0 0 0 0
5 4 2 1 0 0 0 0 0 1 2 1 0 0 0 0 0 0 0 1 1 1 1 1 0 0 0 0 2 3 1 0 0 0 0 0 0 0 0 0 0 0 0
9 7 4 1 0 0 0 0 0 1 1 0 0 0 0 0 0 0 0 0 0 1 2 1 1 0 0 0 1 2 1 0 0 0 0 0 0 0 0 0 0 0 0
14 11 7 3 1 0 0 0 0 0 0 0 0 0 0 0 0 0 0 0 0 1 2 2 1 0 0 0 0 0 0 0 0 0 0 0 0 0 0 0 0 0 0
17 15 10 5 2 0 0 0 0 0 0 0 0 0 0 0 0 0 0 0 0 0 1 1 1 0 0 0 0 0 0 0 0 0 0 0 0 0 0 0 0 0 0
18 17 13 7 3 1 0 0 0 0 0 0 0 0 0 0 0 0 0 0 0 0 0 0 0 0 0 0 0 0 0 0 0 0 0 0 0 0 0 0 0 0 0
17 17 14 9 5 2 2 2 1 0 0 0 0 0 0 0 0 0 0 0 0 0 0 0 0 0 0 0 0 0 0 0 0 0 0 0 0 0 0 0 0 0 0
15 15 13 10 6 4 4 3 1 0 0 0 0 0 0 0 0 0 0 0 0 0 0 0 0 0 0 0 0 0 0 0 0 0 0 0 0 0 0 0 0 0 0
16 14 12 10 8 7 6 4 2 0 0 0 0 0 0 0 0 0 0 0 0 0 0 0 0 0 0 0 0 0 0 0 0 0 0 0 0 0 0 0 0 0 0
20 18 15 12 10 8 6 4 1 0 0 0 0 0 0 0 0 0 0 0 0 0 0 0 0 0 0 0 0 0 0 0 0 0 0 0 0 0 0 0 0 0 0
25 23 20 16 11 7 5 3 1 0 0 0 0 1 0 0 0 0 0 0 0 0 0 0 0 0 0 0 0 0 0 0 0 0 0 0 0 0 0 0 0 0 0
30 28 25 21 14 8 5 4 2 1 1 1 0 0 0 0 1 1 0 0 0 0 0 0 0 0 0 0 0 0 0 0 0 0 0 0 0 0 0 0 0 0 0
35 33 31 27 19 12 7 5 3 2 2 1 0 0 0 1 1 1 1 1 0 0 0 0 0 0 0 0 0 0 0 0 0 0 0 0 0 0 0 0 0 0 0
43 40 37 31 24 18 11 8 7 6 4 3 2 2 2 3 2 2 2 2 1 0 0 0 0 0 0 0 0 0 0 0 0 0 0 0 0 0 0 0 0 0 0
53 47 40 34 28 23 17 13 12 12 9 7 5 3 3 4 4 3 2 2 1 0 0 0 0 0 0 0 0 0 0 0 0 0 0 0 0 0 0 0 0 0 0
58 53 46 40 33 27 23 20 18 15 11 9 6 4 3 4 4 4 3 2 1 0 0 0 0 0 0 0 0 0 0 0 0 0 0 0 0 0 0 0 0 0 0
57 56 53 46 37 29 26 25 21 16 11 9 7 5 3 3 3 4 3 2 1 0 0 0 0 0 0 0 0 0 0 0 0 0 0 0 0 0 0 0 0 0 0

GEFSSE_con_prob3kmehi_186.txt.gz
EHI
0 0 0 0 0 0 1 2 2 1 0 0 0 0 0 0 0 0 0 0 0 0 0 0 0 0 0 0 0 0 0 0 0 0 0 0 0 0 0 0 0 0 0
0 0 0 0 0 0 1 2 3 2 1 0 0 0 0 0 0 0 0 0 0 0 0 0 0 0 0 0 0 0 0 0 0 0 0 0 0 0 0 0 0 0 0
0 0 0 0 0 1 2 3 3 2 1 0 0 0 0 0 0 0 0 0 0 0 0 0 0 0 0 0 0 0 0 0 0 0 0 0 0 0 0 0 0 0 0
0 0 0 1 1 1 2 3 3 1 0 0 0 0 0 0 0 0 0 0 0 0 0 0 0 0 0 0 0 0 0 0 0 0 0 0 0 0 0 0 0 0 0
0 0 0 0 0 0 1 2 2 1 1 1 1 1 1 1 0 0 0 0 0 0 0 0 0 0 0 0 0 0 0 0 0 0 0 0 0 0 0 0 0 0 0
0 0 0 0 1 1 1 1 1 1 2 2 2 2 2 1 0 0 0 0 0 0 0 0 0 0 0 0 0 0 0 0 0 0 0 0 0 0 0 0 0 0 0
0 1 1 1 1 2 2 1 0 1 1 1 1 1 1 1 0 0 0 0 0 0 0 0 0 0 0 0 0 0 0 0 0 0 0 0 0 0 0 0 0 0 0
0 1 1 1 1 2 2 1 0 0 0 0 0 0 0 0 0 0 0 0 0 0 0 0 0 0 0 0 0 0 0 0 0 0 0 0 0 0 0 0 0 0 0
0 0 0 0 0 1 2 2 1 0 0 0 0 0 0 0 0 0 0 0 0 0 0 0 0 0 0 0 0 0 0 0 0 0 0 0 0 0 0 0 0 0 0
1 0 0 0 0 0 1 1 1 0 0 0 0 0 0 0 0 0 0 0 0 0 0 0 0 0 0 0 0 0 0 0 0 0 0 0 0 0 0 0 0 0 0
2 1 0 0 0 0 0 0 0 0 0 0 0 0 1 0 0 0 0 0 0 0 0 0 0 0 0 0 0 0 0 0 0 0 0 0 0 0 0 0 0 0 0
3 2 1 0 0 0 0 0 0 0 0 0 0 0 0 0 0 0 0 0 0 0 0 0 0 0 0 0 0 0 0 0 0 0 0 0 0 0 0 0 0 0 0
5 4 2 1 0 0 0 0 0 0 0 0 0 0 0 0 0 0 0 0 1 0 0 0 0 0 0 0 0 0 0 0 0 0 1 1 1 0 0 0 0 0 0
7 6 4 3 1 0 0 0 0 0 0 0 0 0 0 0 0 0 0 0 0 0 0 0 0 0 0 0 0 0 0 0 0 0 1 2 1 0 0 0 0 0 0
8 7 6 4 2 1 1 1 1 0 0 0 0 0 0 0 0 0 0 0 0 0 0 0 0 0 0 0 0 0 0 0 0 0 1 1 1 0 0 0 0 0 0
10 8 7 6 4 2 2 2 1 0 0 1 1 0 0 0 0 0 0 0 0 0 0 0 0 0 0 0 0 0 0 0 0 0 0 0 0 1 1 0 0 0 0
13 11 9 7 6 4 3 2 1 0 0 1 2 1 0 0 0 0 0 0 0 0 0 0 0 0 0 0 0 0 0 0 0 0 0 0 0 2 3 2 0 0 0
16 15 12 9 8 8 7 5 2 1 0 1 2 1 1 1 0 0 0 0 0 0 0 0 0 0 0 0 0 0 0 0 0 0 0 0 0 2 3 3 2 0 0
18 18 16 14 13 14 13 11 7 4 1 1 2 2 2 2 1 1 0 0 0 0 0 0 0 0 0 0 0 0 0 0 0 0 0 0 0 1 2 3 3 1 0
21 23 23 21 19 19 18 17 12 8 4 2 2 2 2 2 3 3 1 0 0 0 0 0 0 0 0 0 0 0 0 0 0 0 0 0 0 0 1 1 2 2 1
29 32 32 28 24 21 21 20 16 10 6 4 3 2 2 3 4 4 3 2 1 1 0 0 0 0 0 0 0 0 0 0 0 0 0 0 0 0 0 0 1 2 3
42 42 40 34 29 24 22 21 16 9 5 3 3 3 4 6 7 6 4 3 3 3 1 0 1 0 0 0 0 0 0 0 0 0 0 0 0 0 0 0 1 2 3
51 48 44 41 37 30 26 23 19 11 5 2 2 5 7 9 9 8 5 3 3 3 2 2 3 2 0 0 0 1 1 0 0 0 0 0 0 0 0 0 0 1 2
53 48 45 45 44 39 33 29 26 19 10 4 3 5 7 8 9 9 7 5 4 3 3 3 4 4 2 1 1 1 1 1 1 1 0 0 0 0 0 0 0 0 1
51 46 44 47 50 47 40 36 35 28 17 10 6 6 7 7 7 7 7 8 6 4 3 4 6 8 6 4 1 1 2 2 3 2 1 0 0 0 0 1 1 0 0
48 44 43 49 53 50 43 40 39 34 24 14 10 9 10 8 6 4 6 9 8 5 4 5 8 11 9 5 2 1 2 2 4 3 1 0 0 0 1 3 2 1 0

GEFSSE_con_prob3kmehi_192.txt.gz
EHI
4 5 5 4 3 3 3 3 3 3 3 3 3 3 3 3 3 3 3 3 3 3 3 3 3 3 3 3 3 3 3 3 3 3 3 3 3 3 3 3 3 3 3
4 5 6 4 3 3 3 3 3 3 3 3 3 3 3 3 3 3 3 3 3 3 3 3 3 3 3 3 3 3 3 3 3 3 3 3 3 3 3 3 3 3 3
4 4 5 4 3 3 3 3 3 3 3 3 3 3 3 3 3 3 3 3 3 3 3 3 3 3 3 3 3 3 3 3 3 3 3 3 3 3 3 3 3 3 3
4 4 4 4 3 3 3 3 3 3 3 3 3 3 3 3 3 3 3 3 3 3 3 3 3 3 3 3 3 3 3 3 4 3 3 3 2 3 3 3 3 3 3
6 6 5 4 3 3 3 3 3 3 3 3 3 3 3 3 3 3 3 3 3 3 3 3 3 3 3 3 3 3 3 4 5 4 3 3 3 3 3 3 3 3 2
11 9 7 5 4 3 3 3 3 3 3 3 3 3 3 3 3 3 3 3 3 3 3 3 3 3 3 3 3 3 5 7 7 4 3 3 3 3 3 3 3 3 3
15 11 8 7 5 3 3 3 3 3 3 3 3 3 3 3 3 3 3 3 3 3 3 3 3 3 3 3 3 3 6 9 7 4 3 3 3 3 3 3 3 3 3
17 13 10 9 6 5 4 3 3 3 3 3 3 3 3 3 3 3 3 3 3 3 3 3 3 3 3 3 3 3 7 10 7 3 3 3 3 3 3 3 3 3 3
18 14 10 7 6 6 5 4 3 3 3 3 3 3 3 3 3 3 3 3 3 3 3 3 3 3 3 2 1 3 9 11 6 2 3 3 3 3 3 3 3 3 2
17 14 10 8 6 5 4 3 3 3 3 3 3 3 3 3 3 3 3 3 3 3 3 3 3 3 3 1 2 6 10 10 5 2 2 3 3 3 3 3 2 2 2
15 14 12 9 8 6 5 3 3 3 3 3 3 4 4 4 4 4 4 4 3 3 3 3 3 3 2 1 4 10 11 7 3 2 2 3 4 3 3 3 2 2 2
14 13 12 10 8 8 6 4 4 5 5 4 4 5 5 5 4 5 5 5 4 4 3 3 4 3 2 2 5 9 9 4 2 2 3 4 5 4 3 2 2 1 1
15 14 13 10 9 9 8 5 6 8 8 7 6 6 5 4 5 6 6 6 6 5 4 4 4 3 2 2 3 4 4 2 2 2 3 5 6 4 3 3 3 2 1
19 19 18 14 11 13 12 8 7 9 10 10 9 6 4 3 4 6 7 7 6 5 5 4 4 3 2 3 3 1 1 2 3 3 4 6 6 4 4 3 3 3 3
25 26 26 22 18 18 16 11 10 10 10 12 12 9 6 4 5 7 9 8 7 6 5 5 4 3 3 4 3 2 1 2 2 3 5 7 7 6 5 4 3 3 3
35 38 37 32 26 23 16 12 12 11 12 13 16 15 10 7 7 9 10 9 8 7 7 5 4 4 4 4 3 3 2 2 3 4 6 8 9 9 8 7 6 4 4
49 51 47 38 32 26 17 12 11 11 13 17 21 20 14 10 9 9 9 9 9 10 9 7 4 4 4 4 4 3 3 4 5 5 8 11 12 11 11 11 10 8 6
63 62 51 39 35 29 20 15 13 14 17 22 25 23 16 11 10 8 9 11 13 12 10 7 5 4 4 5 6 6 5 6 8 8 10 15 17 16 15 16 16 14 11
73 69 56 44 41 34 24 20 21 22 24 25 26 23 17 12 10 10 12 16 17 14 11 9 7 5 5 6 7 8 7 9 11 12 12 15 19 22 21 20 21 19 16
81 77 68 58 51 40 29 25 26 27 27 26 25 25 21 15 13 13 16 20 18 15 14 11 9 7 7 7 6 6 7 10 14 15 15 15 17 21 23 26 26 22 19
88 85 79 72 62 47 34 28 28 28 28 25 26 30 27 21 18 18 19 20 18 17 15 12 9 8 8 7 4 3 5 8 12 16 18 18 16 16 20 27 29 26 22
94 92 87 81 70 56 42 33 31 30 28 26 30 35 33 28 24 21 22 22 20 19 17 15 14 11 7 6 5 3 3 5 7 11 15 16 16 16 18 22 27 29 27
96 95 91 85 77 66 56 46 41 38 33 32 36 39 38 34 28 24 24 24 22 20 19 20 19 15 9 6 7 7 4 3 3 5 8 10 13 16 14 13 20 26 29
96 95 93 89 85 79 71 62 53 46 38 35 38 41 42 39 31 26 26 27 23 20 21 23 23 19 12 7 7 9 7 3 2 2 3 4 6 8 7 5 10 19 22
94 94 94 93 91 86 79 70 59 49 40 37 40 45 46 42 33 27 29 31 27 24 24 25 24 19 12 7 6 8 8 6 4 2 1 1 2 2 2 2 5 10 13
94 93 93 94 92 87 81 72 60 50 42 40 44 49 48 41 32 28 31 35 33 29 28 26 23 17 11 6 5 6 8 9 7 3 1 1 1 1 3 4 3 5 8

GEFSSE_con_prob3kmehi_198.txt.gz
EHI
0 1 2 1 0 0 0 0 0 0 1 2 2 1 2 3 2 2 1 0 0 0 0 0 0 0 0 0 0 0 0 0 0 0 0 0 0 0 0 0 0 1 1
1 1 1 1 0 0 0 0 0 0 1 1 1 1 3 3 1 1 0 0 0 0 0 0 0 0 0 0 0 0 0 0 0 0 0 0 0 0 0 0 0 0 1
2 1 1 0 0 0 0 0 0 0 0 1 1 2 3 2 1 0 0 0 0 0 0 0 0 0 0 0 0 0 0 0 0 0 0 0 0 0 0 0 0 0 0
4 3 1 0 0 0 0 0 0 0 0 0 1 2 2 2 1 0 0 0 0 0 0 0 0 0 0 0 0 0 0 0 0 0 0 0 0 0 0 0 0 0 0
4 3 2 2 1 0 0 0 0 0 0 0 1 1 1 1 0 0 0 0 0 0 0 0 0 0 0 0 0 0 0 0 0 0 0 0 0 0 0 0 0 0 0
3 3 4 4 3 1 1 0 0 0 0 0 0 0 0 0 0 0 0 0 0 0 0 0 0 0 0 0 0 0 1 1 0 0 0 0 0 0 0 0 0 0 0
4 4 4 4 4 2 1 0 0 0 0 0 0 0 0 0 0 0 0 0 0 0 0 0 0 0 0 0 0 1 2 2 1 0 0 0 0 0 0 0 0 0 0
6 5 3 2 2 1 1 0 0 0 0 0 0 0 0 0 0 0 0 0 0 0 0 0 0 0 0 0 0 1 4 3 1 0 0 0 0 0 0 0 0 0 0
6 6 3 1 1 0 0 0 0 0 0 0 0 0 0 0 0 0 0 0 0 0 0 0 0 0 0 0 0 1 3 3 1 0 0 0 0 0 0 0 0 0 0
6 5 4 2 1 0 0 0 0 0 0 0 0 0 0 0 0 0 0 0 0 0 0 0 0 0 0 0 0 1 2 1 0 0 0 1 1 1 0 0 0 0 0
6 4 3 3 2 0 0 0 0 0 0 0 0 0 0 0 0 0 0 0 0 0 0 0 0 1 1 0 0 1 1 0 0 0 0 1 2 2 1 0 0 0 0
5 4 3 2 1 0 0 0 0 0 0 0 0 0 0 0 0 0 0 0 0 0 0 0 1 1 0 0 0 0 0 0 0 0 0 1 2 2 1 1 0 0 0
5 5 3 2 1 0 0 0 0 0 0 0 0 0 0 0 0 0 0 0 0 0 0 0 0 0 0 0 0 0 0 0 0 0 1 3 4 2 1 1 0 0 0
11 9 5 2 0 0 0 0 0 0 0 0 0 0 0 0 0 0 0 0 0 0 0 0 0 0 0 0 0 0 0 0 0 0 1 5 7 5 2 2 1 1 1
21 15 9 6 4 3 2 0 0 0 0 0 0 0 0 0 0 0 0 0 0 0 0 0 0 0 0 0 0 0 0 0 0 0 2 7 10 9 6 5 5 4 2
32 26 20 17 14 11 7 3 1 1 1 1 1 1 1 0 0 0 0 0 0 0 0 0 0 0 0 0 0 0 0 0 0 0 1 5 10 12 10 9 9 6 4
46 40 34 30 24 17 11 6 3 3 4 3 3 3 2 2 2 1 0 0 0 0 0 0 0 0 0 0 0 0 0 0 0 0 0 2 6 10 12 12 11 9 8
57 52 45 38 28 18 11 7 5 4 5 5 4 4 5 6 5 3 1 0 0 0 0 0 0 0 0 0 0 0 0 0 0 0 0 0 2 5 9 12 13 12 11
63 60 52 41 31 21 13 9 5 4 4 5 5 5 6 8 7 4 2 1 1 0 0 0 0 0 0 0 0 0 0 0 0 0 0 0 0 1 4 8 11 13 13
66 65 59 48 37 26 17 11 7 4 3 3 4 5 6 8 8 6 4 4 3 2 0 0 0 0 0 0 0 0 0 0 0 0 0 0 0 0 1 2 5 9 11
69 68 66 58 47 32 19 13 9 6 2 1 4 6 8 9 9 8 6 5 5 4 1 0 1 1 0 0 0 0 0 0 0 0 0 0 0 0 0 0 1 3 5
75 74 72 66 55 39 23 14 9 6 2 1 4 7 9 9 10 10 8 6 5 4 3 2 1 1 0 0 0 0 0 0 0 0 0 0 0 0 0 0 0 0 1
82 79 75 70 60 45 32 23 17 13 9 5 4 5 8 10 11 11 10 8 5 4 4 3 2 1 0 0 0 0 0 0 0 0 0 0 0 0 0 0 1 1 1
86 82 76 70 62 50 41 36 32 25 17 8 3 2 5 8 10 11 11 10 7 5 4 3 1 0 0 0 0 0 0 0 0 0 0 0 0 0 0 0 0 1 1
87 83 78 73 65 54 47 44 40 30 18 8 3 2 4 6 7 9 10 8 6 5 4 2 1 0 0 0 0 0 0 0 0 0 0 0 0 0 0 0 0 0 1
87 85 81 76 66 57 50 45 40 28 16 8 4 3 4 4 6 9 9 7 5 4 3 3 2 1 0 0 0 0 0 0 0 0 0 0 0 0 0 0 0 0 0

GEFSSE_con_prob3kmehi_204.txt.gz
EHI
0 0 1 0 1 3 4 4 4 4 4 2 1 1 0 1 2 1 0 0 0 0 0 0 0 0 1 2 2 1 0 0 0 0 0 0 0 0 0 0 0 0 0
0 0 1 1 1 3 5 5 5 5 4 3 2 2 1 1 2 1 0 0 0 0 0 0 0 0 1 1 1 0 0 0 0 0 0 0 0 0 0 0 0 0 0
0 0 1 2 1 2 5 6 5 5 4 3 3 3 2 1 1 1 0 0 0 0 0 0 0 0 0 0 0 0 0 0 0 0 0 0 0 0 0 0 0 0 0
0 0 1 3 2 2 4 4 4 4 3 3 2 2 2 1 0 0 0 0 0 0 0 0 0 0 0 0 0 0 0 0 0 0 0 0 0 0 0 0 0 0 0
0 0 2 4 4 3 3 3 2 2 2 1 1 1 1 0 0 0 0 0 0 0 0 0 0 0 0 0 1 1 0 0 0 0 0 0 0 0 0 0 0 0 0
0 1 3 5 4 3 3 2 1 1 1 0 0 0 0 0 0 0 0 0 0 0 0 0 1 1 1 1 2 2 1 1 0 0 0 0 0 1 1 1 0 0 0
0 1 3 6 5 4 3 2 1 1 0 0 0 0 0 0 0 0 0 0 0 0 0 1 2 3 2 2 3 4 3 2 0 0 0 0 0 1 2 1 0 0 0
0 0 2 5 5 4 3 2 2 1 0 0 0 1 1 1 0 0 0 0 0 0 0 1 2 2 2 2 3 4 4 2 0 0 0 0 0 0 1 1 0 0 0
0 0 1 2 3 3 2 1 1 1 0 0 1 2 2 2 1 0 0 0 0 0 0 1 1 1 1 2 2 4 5 2 0 0 0 0 0 0 0 0 0 0 0
0 0 0 0 0 1 1 0 0 0 0 0 1 3 3 2 1 0 0 0 0 0 0 0 0 0 1 2 3 4 4 2 0 0 0 1 1 1 0 0 0 0 0
1 1 0 0 0 0 0 0 0 0 0 0 1 2 2 1 0 1 1 0 0 0 0 0 0 1 1 2 4 5 3 1 0 0 0 1 1 1 0 0 0 0 0
3 2 1 0 0 0 0 0 0 0 0 0 1 1 1 0 0 1 1 0 0 0 0 0 0 0 0 1 3 2 1 0 0 0 0 0 1 0 0 0 1 0 0
4 3 1 0 0 0 0 0 0 0 0 0 0 0 0 0 0 1 1 0 0 0 0 0 0 0 0 0 1 0 0 0 0 0 0 1 2 2 1 1 2 2 1
6 4 2 0 0 0 0 0 0 0 0 0 0 0 0 0 0 0 0 0 0 0 0 0 0 0 0 0 0 0 0 0 0 0 0 1 3 4 3 2 3 3 2
6 5 3 1 0 0 0 0 0 0 0 0 0 0 0 0 0 0 0 0 0 0 0 0 0 0 0 0 0 0 0 0 0 0 0 1 4 6 4 3 3 3 3
7 5 3 1 0 0 0 0 0 0 0 0 0 0 0 0 0 0 0 0 0 0 0 0 0 0 0 0 0 0 0 0 0 0 0 1 3 4 5 4 3 2 2
7 5 3 2 1 0 0 0 0 0 0 0 0 0 0 0 0 0 0 0 0 0 0 0 0 0 0 0 0 0 0 0 0 0 0 0 1 2 4 5 4 3 2
8 6 4 3 2 1 0 0 0 0 0 0 0 0 0 0 0 0 0 0 0 0 0 0 0 0 0 0 0 0 0 0 0 0 0 0 0 0 2 3 4 3 3
8 7 5 4 3 1 0 0 0 0 0 0 1 1 1 1 0 0 0 0 0 0 0 0 0 0 0 0 0 0 0 0 0 0 0 0 0 0 0 1 2 3 4
9 9 8 6 4 2 2 2 2 1 1 1 1 2 2 1 0 0 1 0 0 0 0 0 0 0 0 0 0 0 0 0 0 0 0 0 0 0 0 0 1 2 3
14 14 13 9 6 4 5 5 3 2 2 1 1 1 1 1 1 0 0 0 0 0 0 0 1 1 1 0 0 0 0 0 0 0 0 0 0 0 0 0 0 0 1
24 21 18 14 10 8 7 5 3 1 1 1 2 2 1 1 2 1 1 0 0 0 0 1 2 2 1 0 0 0 0 0 0 0 0 0 0 0 0 0 0 0 0
33 29 23 20 17 12 9 7 5 3 1 1 2 3 2 2 2 2 2 1 0 0 1 1 2 2 1 0 0 0 0 0 0 0 0 0 0 0 0 0 0 0 0
38 34 27 23 19 14 12 13 12 8 4 2 2 2 1 1 1 1 2 1 0 0 0 0 1 1 0 0 0 0 0 0 0 0 0 0 0 0 0 0 0 0 0
39 37 31 25 20 18 19 20 17 13 7 3 1 0 0 0 0 1 2 2 1 0 0 0 0 0 0 0 0 0 0 0 0 0 0 0 0 0 0 0 0 0 0
41 41 36 29 23 22 25 24 19 14 10 5 1 0 0 0 0 1 2 3 2 1 0 0 0 0 0 0 0 0 0 0 0 0 0 0 0 0 0 0 0 0 0

GEFSSE_con_prob3kmehi_210.txt.gz
EHI
0 0 0 0 0 0 1 1 1 1 0 0 0 0 1 2 2 1 0 0 0 0 0 0 0 0 0 0 0 0 0 0 0 0 0 0 0 0 0 0 0 0 0
0 0 0 0 0 0 0 1 2 2 1 0 0 0 0 1 1 0 0 0 0 0 0 0 0 0 0 0 0 0 0 0 0 0 0 0 0 0 0 0 0 0 0
0 0 0 0 0 0 0 1 3 3 1 1 1 0 0 0 0 0 0 0 0 0 0 0 0 0 0 0 0 0 0 0 0 0 0 0 0 0 0 0 0 0 0
0 0 0 0 0 0 1 2 3 3 3 2 2 1 0 0 0 0 0 0 0 0 0 0 0 0 0 0 0 0 0 0 0 0 0 0 0 0 0 0 0 0 0
0 0 0 0 0 0 1 2 3 3 3 3 2 1 0 0 0 0 0 0 0 0 0 0 0 0 0 0 0 0 0 0 0 0 0 0 0 0 0 0 0 0 0
0 1 1 1 0 0 0 1 2 2 2 2 1 1 0 0 0 0 0 0 0 0 0 0 0 0 0 0 0 0 0 0 0 0 0 0 0 0 0 0 0 0 0
0 1 1 1 0 0 0 0 1 1 1 1 0 0 0 0 0 0 0 0 0 0 0 0 0 0 0 0 0 0 0 0 0 0 0 0 0 0 0 0 0 0 0
0 0 0 0 0 0 0 0 0 0 0 0 0 0 0 0 0 0 0 0 0 0 0 0 0 0 0 0 0 0 0 0 0 0 0 0 0 0 0 0 0 0 0
0 0 0 0 0 0 0 0 0 0 0 0 0 0 0 0 0 0 0 0 0 0 0 0 0 0 0 0 0 0 0 0 0 0 0 0 0 0 0 0 0 0 0
0 0 0 0 1 0 0 0 0 0 0 0 0 0 0 0 0 0 0 0 0 0 0 0 0 0 0 0 0 1 1 0 0 0 0 0 0 0 0 0 0 0 0
1 0 0 0 0 0 0 0 0 0 0 1 0 0 0 0 0 0 0 0 0 0 0 0 0 0 0 0 0 0 1 1 0 0 0 0 0 0 0 0 1 1 0
2 1 1 0 0 0 0 0 0 0 0 0 0 0 0 0 0 0 0 0 0 0 0 0 0 0 0 0 0 0 0 0 0 0 0 0 0 0 0 0 1 2 1
5 4 2 1 0 0 0 0 0 0 0 0 0 0 0 0 0 0 0 0 0 0 0 0 0 0 0 0 0 0 0 0 0 0 0 0 0 0 0 0 1 2 2
6 5 2 1 0 0 0 0 0 0 0 0 0 0 0 0 0 0 0 0 0 0 0 0 0 0 0 0 0 0 0 0 0 0 0 0 0 0 0 0 0 1 1
6 4 2 1 1 0 0 0 0 0 0 0 1 0 0 0 0 0 0 0 0 0 0 0 0 0 0 0 0 0 0 0 0 0 0 1 1 1 0 0 0 0 0
4 3 1 1 2 1 0 0 0 0 0 0 0 0 0 0 0 0 0 0 0 0 0 0 0 0 0 0 0 0 0 0 0 0 0 1 2 2 1 0 0 0 1
3 2 1 1 3 3 2 1 1 1 1 0 0 0 0 0 1 1 1 0 0 0 0 0 0 0 0 0 0 0 0 0 0 0 0 0 2 2 2 0 0 0 1
4 4 3 2 4 7 6 4 3 2 2 1 1 0 0 0 1 2 1 1 1 0 0 0 0 0 0 0 0 0 0 0 0 0 0 0 1 1 1 0 1 1 1
9 9 8 6 6 9 10 8 5 3 3 3 2 2 1 0 1 1 1 0 0 0 0 0 1 1 1 1 1 0 0 0 0 0 0 0 0 0 0 0 1 2 2
12 14 13 11 10 11 12 11 7 4 3 4 4 4 2 1 1 0 0 0 0 0 0 1 2 2 2 2 2 1 0 0 0 0 0 0 0 0 0 0 1 2 2
16 18 19 18 17 17 15 13 8 5 4 4 4 5 4 2 1 0 0 0 0 1 1 2 2 2 2 3 2 1 0 0 0 0 0 0 0 0 0 1 1 2 3
20 22 24 25 24 22 18 14 10 8 6 5 5 5 5 4 2 2 2 1 1 2 2 1 2 1 1 2 3 1 0 0 0 0 0 0 0 0 1 1 2 2 2
25 26 27 28 27 24 20 16 14 13 10 7 7 7 8 8 6 5 5 3 2 3 3 2 1 2 2 3 4 3 1 2 2 1 1 0 0 1 2 1 1 1 0
30 29 28 30 29 27 23 19 17 15 11 8 7 9 11 13 11 8 6 6 5 5 5 3 2 3 4 5 5 4 3 3 3 3 2 1 1 2 2 1 0 0 1
31 29 28 33 36 34 29 24 18 14 11 9 8 10 13 15 14 11 8 8 7 5 4 3 3 5 7 6 4 3 2 3 3 3 2 2 2 1 1 1 1 1 1
29 27 27 36 43 40 33 27 20 15 13 13 11 12 15 18 17 14 10 9 7 4 3 2 3 5 6 5 4 3 2 2 3 3 2 1 1 1 1 2 2 1 1

GEFSSE_con_prob3kmehi_216.txt.gz
EHI
0 0 0 0 0 1 1 1 0 0 0 1 2 2 2 2 2 1 0 0 0 0 0 0 0 0 0 0 0 0 0 0 0 0 0 0 0 0 0 0 0 0 0
0 0 0 0 0 0 0 0 0 0 0 1 1 1 1 1 1 0 0 0 0 0 0 0 0 0 0 0 0 0 0 0 0 0 0 0 0 0 0 0 0 0 0
0 0 0 0 0 0 0 0 0 0 0 0 0 0 0 0 0 0 0 0 0 0 0 0 0 0 0 0 0 0 0 0 0 0 0 0 0 0 0 0 0 0 0
2 2 1 0 0 0 0 0 0 0 0 0 0 0 0 0 0 0 0 0 0 0 0 0 0 0 0 0 0 0 0 0 0 1 0 0 0 0 0 0 0 0 0
5 4 1 0 0 0 0 0 0 0 0 0 0 0 0 0 0 0 0 0 0 0 0 0 0 0 0 0 0 0 0 0 0 0 0 0 0 0 0 0 0 0 0
7 4 1 0 0 0 0 0 0 0 0 0 0 0 0 0 0 0 0 0 0 0 0 0 0 0 0 0 0 1 3 3 3 1 1 1 0 0 0 0 0 0 0
8 3 0 0 1 0 0 0 0 0 0 0 0 0 0 0 0 0 0 0 0 0 0 0 0 0 0 0 0 2 6 9 6 3 3 3 1 0 0 0 0 0 0
7 3 0 0 0 0 0 0 0 0 0 0 0 0 0 0 0 0 0 0 0 0 0 0 0 0 0 0 0 2 9 13 9 3 4 3 1 0 0 0 0 0 0
5 3 2 2 1 0 0 0 0 0 0 0 0 0 0 0 0 0 0 0 0 0 0 0 0 0 0 0 1 4 11 14 9 3 2 1 0 0 0 0 0 0 0
4 5 5 4 3 2 1 0 0 0 0 0 1 1 1 0 0 0 0 0 0 0 0 0 0 0 0 1 4 9 12 11 6 2 1 1 1 1 0 0 0 0 0
5 6 6 5 4 3 2 1 0 1 1 2 3 4 4 3 2 1 1 0 0 0 0 1 2 2 2 4 10 14 12 6 3 1 2 3 3 2 1 1 0 0 0
6 7 6 5 3 2 2 1 1 4 5 5 4 6 6 5 3 3 3 2 2 2 2 4 5 4 3 4 10 13 9 4 1 2 4 6 6 4 3 2 1 1 0
6 6 6 4 3 2 1 2 3 7 9 6 4 4 4 4 3 5 5 5 5 5 5 7 7 5 2 2 5 6 4 1 1 2 5 8 9 6 4 2 2 1 1
5 6 6 5 3 3 3 3 4 8 9 6 4 3 3 3 4 6 7 7 6 5 5 6 5 4 2 2 3 3 2 1 1 3 7 12 13 9 5 3 2 1 1
6 7 7 7 6 5 5 5 6 9 10 8 6 5 4 5 6 7 8 9 6 4 4 4 5 5 5 5 5 4 3 3 2 3 9 15 16 13 9 6 5 3 2
7 9 11 11 9 7 5 5 6 8 10 9 10 9 7 7 7 7 9 9 7 4 4 6 6 5 5 6 6 5 5 5 3 4 9 14 15 14 12 10 8 6 5
12 15 16 14 12 10 5 2 3 6 7 9 13 14 10 7 6 7 7 8 7 6 6 7 6 4 5 6 6 4 5 6 5 4 8 11 13 13 14 13 11 9 8
23 24 19 15 15 14 8 3 3 5 6 9 13 15 10 6 6 7 7 7 6 7 6 5 4 4 6 7 5 4 4 6 5 4 5 10 14 14 14 15 15 14 12
37 34 24 18 18 18 13 7 6 6 7 10 15 14 9 5 6 8 9 9 8 7 5 3 3 6 7 7 5 3 4 7 7 4 3 8 16 19 16 16 17 17 16
50 45 35 28 25 22 16 11 8 8 9 12 18 19 13 8 8 10 12 13 12 8 5 4 4 7 8 6 4 2 5 10 10 6 4 6 12 17 18 19 17 14 13
61 57 49 42 37 29 22 16 13 11 12 15 23 27 23 17 15 16 17 18 16 11 8 6 8 9 6 4 3 2 5 10 10 7 6 6 6 9 14 20 18 13 10
72 67 60 53 46 37 30 24 18 15 15 20 29 36 33 28 25 23 22 21 18 14 11 10 12 11 5 3 4 3 4 5 5 4 5 5 4 5 10 15 18 17 15
77 72 64 58 53 44 36 29 23 21 21 27 37 40 37 33 31 28 26 23 20 15 11 12 13 12 7 5 4 3 2 2 1 1 2 3 5 6 7 9 13 17 19
74 70 66 64 60 53 43 34 30 29 28 32 39 41 38 35 33 32 31 30 25 18 13 12 12 13 10 7 4 3 2 2 1 0 1 2 4 6 6 6 9 12 14
69 68 69 70 68 61 52 43 37 33 31 34 41 45 42 39 35 35 38 37 31 24 18 14 13 13 12 8 6 5 4 4 2 1 1 1 3 6 6 5 6 7 8
67 67 69 72 72 66 57 47 40 35 32 37 45 48 44 41 38 36 40 41 34 26 22 17 13 13 12 9 7 5 4 4 3 1 1 2 4 7 7 5 4 5 6

GEFSSE_con_prob3kmehi_222.txt.gz
EHI
0 0 0 1 2 3 2 1 1 2 2 2 2 1 1 1 0 0 0 0 0 0 0 0 0 0 0 0 0 0 1 2 2 1 0 0 0 0 0 0 0 0 0
0 0 0 1 2 3 2 1 0 1 1 1 1 0 0 0 0 0 0 0 0 0 0 0 0 0 0 0 0 0 0 1 1 0 0 0 0 0 0 0 0 0 0
0 0 0 0 1 2 2 1 0 0 0 0 0 0 0 0 0 0 0 0 0 0 0 0 0 0 1 0 0 0 0 0 0 0 0 0 0 0 0 0 0 0 0
0 0 0 0 1 1 1 0 0 0 0 0 0 0 0 0 0 0 0 0 0 0 0 0 0 0 0 0 0 0 0 0 0 0 0 0 0 0 0 0 0 0 0
0 0 0 0 0 0 0 0 0 0 0 0 0 0 0 0 0 0 0 0 0 0 0 0 0 0 0 0 0 0 1 1 0 0 0 0 0 0 0 0 0 0 0
0 0 0 0 0 0 0 0 0 0 0 0 0 0 0 0 0 0 0 0 0 0 0 0 0 0 0 0 0 1 2 2 0 0 0 0 0 0 0 0 0 0 0
0 0 0 0 0 0 0 0 0 0 0 0 0 0 0 0 0 0 0 0 0 0 0 0 0 0 0 0 1 2 3 1 0 0 0 0 0 1 0 0 0 0 0
0 0 0 0 0 0 0 0 0 0 0 0 0 0 0 0 0 0 0 0 0 0 0 0 0 0 0 2 3 2 1 0 0 0 0 0 1 3 2 0 0 0 0
0 0 0 0 0 0 0 0 0 0 0 0 0 0 0 0 0 0 0 0 0 0 0 0 0 0 2 4 5 5 2 0 0 0 0 0 2 4 4 1 0 0 0
0 0 0 0 0 0 0 0 0 0 0 0 0 0 0 0 0 0 0 0 0 0 0 0 1 3 5 6 6 6 4 1 0 0 0 1 4 6 4 1 0 0 0
0 0 1 0 0 0 0 0 0 0 0 0 1 1 1 0 0 0 0 1 2 2 1 2 4 6 6 4 3 3 3 1 0 0 0 2 6 7 4 1 1 1 0
1 0 1 1 0 0 0 0 0 0 0 0 1 2 1 1 1 1 1 2 4 4 3 3 4 4 3 2 1 1 1 1 1 0 1 4 7 7 5 3 2 2 1
3 2 1 1 1 0 0 0 0 0 0 0 1 2 3 2 2 1 1 2 4 4 3 2 2 2 1 0 0 0 0 0 0 0 2 7 10 9 7 5 4 3 2
7 5 3 2 1 1 1 1 1 0 0 1 2 2 3 3 3 2 1 1 2 3 2 1 1 1 0 0 0 0 0 0 0 0 3 9 12 11 8 6 6 5 4
9 7 4 2 1 2 3 3 2 1 1 1 1 1 2 2 3 2 1 1 1 1 2 1 1 0 0 0 0 0 0 0 0 0 2 7 11 11 10 9 8 7 6
10 8 4 2 1 2 3 3 2 1 1 1 0 0 1 2 2 2 1 0 0 0 1 1 0 0 0 0 0 0 0 0 0 0 1 4 8 10 10 10 9 7 6
12 9 6 3 1 1 1 1 0 1 1 1 1 1 2 2 2 1 0 0 0 0 0 0 0 0 0 0 0 0 0 0 0 0 0 1 4 6 7 7 7 5 4
14 11 7 5 2 1 0 0 0 0 1 2 2 2 3 4 3 1 0 0 0 0 0 0 0 0 0 0 0 0 0 0 0 0 0 0 1 1 2 5 6 5 4
16 11 8 7 4 1 0 0 0 0 1 2 4 4 5 6 5 2 1 1 1 0 0 0 0 0 0 0 0 0 0 0 0 0 0 0 0 0 0 2 5 6 5
20 15 12 11 7 3 1 1 1 1 1 2 5 6 6 7 5 2 1 1 1 0 0 0 0 0 0 0 0 0 0 0 0 0 0 0 0 0 0 1 2 3 4
28 26 23 19 12 6 3 3 3 2 2 3 5 6 5 5 4 3 2 1 0 0 0 0 0 0 0 0 0 0 0 0 0 0 0 0 0 0 0 0 0 1 1
40 39 35 28 18 9 6 5 4 2 1 2 3 3 3 3 4 4 3 2 1 1 1 0 0 0 0 0 0 0 0 0 0 0 0 0 0 0 0 0 1 0 0
48 46 41 35 26 15 9 7 6 4 4 4 4 2 2 3 4 4 3 3 3 2 2 1 0 0 0 0 0 0 0 0 0 0 0 0 0 0 0 0 0 0 0
49 46 42 38 33 23 15 12 10 8 8 8 6 2 2 3 4 4 4 4 3 3 3 2 1 0 0 0 0 0 0 0 0 0 0 0 0 0 0 0 0 0 0
48 46 42 40 36 30 25 20 15 12 10 9 7 5 3 2 4 5 5 5 4 3 3 3 2 1 0 0 0 0 0 0 0 0 0 0 0 0 0 0 0 0 0
47 45 42 40 38 35 30 24 19 14 10 8 7 6 4 1 2 4 6 6 4 3 3 3 2 1 0 0 0 0 0 0 0 0 0 0 0 0 0 0 0 0 0

GEFSSE_con_prob3kmehi_228.txt.gz
EHI
0 1 1 1 2 2 1 1 1 0 0 0 1 1 1 0 0 0 0 0 0 0 0 0 0 0 0 0 0 0 0 0 0 0 0 0 0 0 0 0 0 0 0
0 0 0 0 1 1 0 0 0 0 0 0 0 0 0 0 0 0 0 0 0 0 0 0 0 0 0 0 0 0 0 0 0 0 0 0 0 0 0 0 0 0 0
0 0 0 0 0 0 0 0 0 0 0 0 0 0 0 0 1 0 0 0 0 0 0 0 0 0 0 0 0 0 0 0 0 0 0 0 0 0 0 0 0 0 0
0 0 0 0 0 0 0 0 0 0 0 0 0 0 0 0 0 0 0 0 0 0 0 0 0 0 0 0 0 0 0 0 0 0 0 0 0 0 0 0 0 0 0
0 0 0 0 0 0 0 0 0 0 0 0 0 0 1 0 0 0 0 0 0 0 0 0 0 0 0 0 0 0 1 0 0 0 0 0 0 0 0 0 0 0 0
0 0 0 0 0 0 0 0 0 0 0 0 0 0 0 0 0 0 0 0 0 0 0 0 0 0 0 0 0 0 1 1 0 0 0 0 0 0 0 0 0 0 0
0 0 0 0 0 0 0 0 0 0 0 0 0 0 0 0 0 0 0 0 0 0 0 0 0 0 0 0 0 0 1 1 0 0 0 0 0 0 0 0 0 0 0
0 0 0 0 0 0 0 0 0 0 0 0 0 0 0 0 0 0 0 0 0 0 0 0 0 0 0 0 0 0 1 1 0 0 0 0 0 0 0 0 0 0 0
0 0 0 0 0 0 0 0 0 0 0 0 0 0 0 0 0 0 0 0 0 0 0 0 0 0 0 0 0 0 0 0 0 0 0 0 0 0 0 0 0 0 0
0 0 0 0 0 0 0 0 0 0 0 0 1 1 1 0 0 0 0 0 0 0 0 0 0 0 0 1 1 1 0 0 0 0 0 0 0 0 0 0 0 0 0
0 0 0 0 0 0 0 0 0 0 0 0 1 1 1 0 0 0 0 0 0 1 0 0 0 0 0 1 2 2 1 0 0 0 0 0 0 1 1 1 1 1 1
0 0 0 0 0 0 0 0 0 0 0 0 1 1 0 0 0 0 0 0 0 0 0 0 0 0 0 0 1 1 1 0 0 0 0 0 1 2 2 2 2 2 2
0 0 0 0 0 0 0 0 0 0 0 0 0 0 0 0 0 0 0 0 0 0 0 0 0 0 0 0 0 0 0 0 0 0 0 0 1 4 4 3 2 1 1
1 0 0 0 0 0 0 0 0 0 0 0 0 0 0 0 0 0 0 0 0 0 0 0 0 0 0 0 0 0 0 0 0 0 0 0 3 6 6 4 3 1 0
2 1 0 0 0 0 0 0 0 0 0 0 0 0 0 0 0 0 0 0 0 0 0 0 0 0 0 0 0 0 0 0 0 1 1 1 4 7 7 6 4 3 2
3 2 0 0 0 0 0 0 0 0 0 0 0 0 1 1 0 0 0 0 0 0 0 0 0 0 0 0 0 0 0 0 1 2 2 2 2 4 5 5 4 4 3
3 2 0 0 0 0 0 0 0 0 0 0 0 0 2 2 1 0 0 0 0 0 0 0 0 0 0 0 0 0 0 1 2 2 1 1 0 1 2 3 3 3 3
3 2 1 0 0 0 0 0 0 0 0 0 0 0 2 3 2 1 0 0 0 0 0 0 0 0 0 0 0 0 0 1 1 1 0 0 0 0 1 1 1 2 3
2 2 1 0 0 0 0 0 0 0 0 0 0 0 2 3 2 1 0 0 0 0 0 0 0 0 0 0 0 0 0 0 0 0 0 0 0 0 0 0 0 1 2
1 1 1 1 0 0 0 0 0 0 0 0 0 0 1 1 2 1 0 0 0 0 0 0 0 0 0 0 0 0 0 0 0 0 0 0 0 0 0 0 0 1 1
1 1 2 2 1 1 2 1 0 0 0 0 1 0 0 1 1 1 1 0 0 0 0 0 0 0 0 0 0 0 0 0 0 0 0 0 0 0 0 0 0 0 0
3 3 3 3 3 3 3 2 1 0 0 0 0 0 0 0 1 2 2 1 1 0 0 0 0 0 0 0 0 0 0 0 0 0 0 0 0 0 0 0 0 0 0
4 4 3 3 3 3 3 4 3 2 0 0 0 0 0 0 1 3 3 3 2 1 0 0 0 0 0 0 0 0 0 0 0 0 0 0 0 0 0 0 0 0 0
5 4 4 4 3 3 4 5 5 4 1 0 0 0 0 0 1 2 3 3 3 2 1 1 1 0 0 0 0 0 0 0 0 0 0 0 0 0 0 0 0 0 0
7 5 5 5 4 4 4 5 6 5 2 1 1 1 0 0 2 3 4 3 3 3 3 2 2 1 0 0 0 0 0 0 0 0 0 0 0 0 0 0 0 0 0
8 7 6 6 5 4 5 5 5 5 4 2 2 2 1 1 3 5 5 4 3 3 3 3 3 2 1 0 0 0 0 0 0 0 0 0 0 0 0 0 0 0 0

GEFSSE_con_prob3kmehi_234.txt.gz
EHI
0 0 0 0 0 0 0 0 0 0 0 0 0 0 0 0 0 0 0 0 0 0 0 0 1 3 3 2 1 0 0 0 0 0 0 0 0 0 0 0 0 0 0
0 0 0 0 0 0 0 0 0 0 0 0 0 0 0 0 0 0 0 0 0 0 0 1 2 3 2 1 0 0 0 0 0 0 0 0 0 0 0 0 0 0 0
0 0 0 0 0 0 0 0 0 0 0 0 0 0 0 0 0 0 0 0 0 0 0 1 2 2 1 0 0 0 0 0 0 0 0 0 0 0 0 0 0 0 0
0 0 0 0 0 0 0 0 0 0 0 0 0 0 0 0 0 0 0 0 0 0 0 0 1 1 0 0 0 0 0 0 0 0 0 0 0 0 0 0 0 0 0
0 0 0 0 0 0 0 0 0 0 0 0 0 0 0 0 0 0 1 0 0 0 0 0 0 0 0 0 0 0 0 0 0 0 0 0 0 0 0 0 0 0 0
0 0 0 0 0 0 0 0 0 0 0 0 0 0 0 0 0 0 0 0 0 0 0 0 0 0 0 0 0 0 1 1 0 0 0 0 0 0 0 0 0 0 0
0 0 0 0 0 0 0 0 0 0 0 0 0 0 0 0 0 0 0 0 0 0 0 0 0 0 0 0 0 0 1 1 0 0 0 0 0 0 0 0 0 0 0
0 0 0 0 0 0 0 0 0 0 0 0 0 0 0 0 0 0 0 0 0 0 0 0 0 0 0 0 0 0 0 0 0 0 0 0 0 0 0 0 0 0 0
0 0 0 0 0 1 0 0 0 0 0 0 0 0 0 0 0 0 0 0 0 0 0 0 0 0 0 0 0 0 0 0 0 0 0 0 0 0 0 0 0 0 0
0 0 0 0 0 0 0 0 1 1 0 0 0 0 0 0 0 0 0 0 0 0 0 0 0 0 1 1 1 1 0 0 0 0 0 1 1 0 0 0 0 0 0
0 0 0 0 0 0 0 0 1 1 1 1 0 0 1 0 0 0 0 0 0 0 0 0 1 1 2 2 2 2 1 0 0 0 1 1 1 0 0 0 0 0 0
1 0 0 0 0 0 0 0 1 1 0 0 0 0 0 0 0 0 0 0 0 0 1 1 1 2 2 2 2 3 1 0 0 0 1 2 1 0 0 0 0 0 0
2 1 0 0 0 0 0 0 0 0 0 0 0 0 0 0 0 0 0 0 0 0 0 0 1 1 1 0 1 1 0 0 0 0 1 2 1 1 1 1 0 0 0
2 1 1 0 0 0 0 0 1 0 0 0 0 0 0 0 0 0 0 0 0 0 0 0 0 0 0 0 0 0 0 0 0 0 1 2 2 2 2 1 0 0 0
1 1 1 0 0 0 0 0 1 0 0 0 0 0 1 1 1 1 1 1 0 0 0 0 0 0 0 0 0 0 0 0 1 1 1 1 1 1 1 1 0 0 0
2 1 0 0 0 0 0 0 1 0 0 0 0 1 2 2 3 3 3 2 1 0 0 0 0 0 0 0 0 0 0 1 2 2 1 0 0 0 0 0 0 0 0
1 1 0 0 0 0 1 1 1 0 0 0 0 1 3 4 4 4 3 2 1 0 0 0 0 0 0 0 0 0 1 2 3 2 1 0 0 1 1 0 0 0 0
2 1 1 0 0 1 2 2 1 1 1 1 1 3 6 8 7 5 3 1 1 1 1 0 0 0 0 0 0 1 2 3 2 1 0 0 0 0 1 1 1 0 0
5 4 3 2 2 2 3 3 3 2 2 2 3 5 8 10 9 7 4 2 1 1 1 0 0 0 0 0 0 1 2 2 1 0 0 0 0 0 1 1 1 0 0
5 5 6 6 6 5 4 3 3 2 2 2 3 5 7 7 8 8 6 3 1 1 0 0 0 0 1 1 1 1 1 0 0 0 0 0 0 0 0 1 1 0 0
5 8 10 11 10 7 5 3 1 1 1 1 1 2 3 4 5 6 5 3 3 2 1 2 2 2 2 2 2 0 0 0 0 0 0 1 0 0 0 1 1 1 1
10 12 13 14 13 10 6 3 1 0 0 0 1 1 1 1 3 4 3 4 5 5 4 5 6 5 3 3 3 2 0 0 0 1 1 1 0 0 0 0 1 1 1
14 13 13 15 16 14 9 5 3 2 1 1 1 1 1 1 3 4 4 5 7 8 7 7 9 9 6 5 5 3 1 1 1 2 2 1 1 1 0 0 1 2 3
14 12 13 16 19 18 14 11 9 6 3 2 2 2 2 2 4 5 6 6 8 8 7 7 8 9 8 7 6 4 3 2 1 1 1 1 2 2 1 1 2 4 4
11 11 14 21 25 23 19 17 15 10 6 5 4 4 4 4 6 7 6 6 6 7 6 5 5 5 6 6 5 5 5 4 1 0 0 1 2 2 2 3 5 5 4
10 9 15 25 30 26 21 19 17 13 9 8 7 6 6 7 7 7 7 6 5 5 6 5 4 4 4 4 4 5 7 6 2 0 0 1 3 2 2 5 6 5 3

GEFSSE_con_prob3kmehi_240.txt.gz
EHI
0 1 2 1 0 0 0 0 0 0 0 0 0 0 0 0 0 0 0 0 0 0 0 0 1 1 2 2 2 2 1 0 0 0 0 0 0 0 0 0 0 0 0
0 1 2 1 0 0 0 0 0 0 0 0 0 0 0 0 0 0 0 0 0 0 0 1 2 2 2 2 1 1 0 0 0 0 0 0 0 0 0 1 1 0 0
0 0 1 1 0 0 0 0 1 0 0 0 0 0 0 0 0 0 0 0 0 0 0 1 2 2 2 1 0 0 0 0 0 0 0 0 0 0 1 2 1 1 1
0 0 0 0 0 0 0 0 0 0 0 0 0 0 0 0 0 0 0 0 0 0 1 1 1 1 1 0 0 0 0 0 0 0 0 0 0 0 1 1 1 0 0
1 0 0 0 0 0 0 0 0 0 0 0 0 0 0 0 0 0 0 0 0 0 1 0 0 0 0 0 0 0 0 1 1 1 0 0 0 0 0 0 0 0 0
2 1 0 0 0 0 0 0 0 0 0 0 0 0 0 0 0 0 0 0 0 0 0 0 0 0 0 0 0 0 0 2 3 2 1 1 1 0 0 0 0 0 0
2 1 0 0 0 1 1 0 0 0 0 0 0 0 0 0 0 0 0 0 0 0 0 0 0 0 1 1 0 0 1 3 3 2 2 3 2 1 0 0 0 0 0
3 1 0 0 1 2 2 1 0 0 0 0 0 0 0 0 0 0 0 0 0 0 0 0 0 0 1 1 0 0 3 4 2 1 2 4 3 1 0 0 0 0 0
3 2 1 1 2 3 3 2 1 1 0 0 0 0 1 1 1 1 1 1 1 0 0 1 1 1 1 1 1 2 5 6 2 0 2 4 4 3 1 0 0 0 0
1 1 2 2 1 2 3 4 4 3 1 0 1 1 2 2 3 3 3 3 2 1 1 2 2 2 3 4 6 6 7 6 2 1 2 6 7 5 3 1 0 0 0
1 1 1 2 1 1 2 5 7 6 4 3 2 3 4 5 4 4 5 6 5 3 3 4 5 5 5 8 12 13 10 5 2 2 4 8 9 7 5 2 0 0 0
4 3 2 2 2 1 1 4 7 9 9 6 5 7 7 6 4 3 6 9 8 6 6 7 8 7 6 7 12 15 11 4 2 2 5 9 11 9 6 4 1 0 0
7 6 4 3 3 3 1 2 4 8 10 9 8 9 8 5 3 3 4 7 7 6 7 8 7 5 3 3 6 9 6 2 1 2 5 10 12 9 6 4 2 1 0
9 8 5 3 4 5 4 3 3 5 8 10 10 10 8 7 5 4 5 6 5 5 6 6 4 3 2 1 2 3 3 1 1 1 4 10 12 10 6 3 2 1 0
8 7 6 4 4 6 7 7 6 7 9 12 13 11 9 9 8 7 7 7 4 4 6 6 4 3 2 1 1 1 2 2 2 2 4 7 10 10 7 5 4 3 2
6 6 7 7 6 6 7 8 8 8 12 14 16 15 11 10 9 7 7 6 5 4 7 8 6 4 2 1 2 2 3 4 4 4 5 7 9 9 8 7 6 5 4
4 6 9 10 10 10 8 7 6 7 10 14 17 17 14 10 9 8 7 6 6 7 10 11 9 6 3 2 4 4 4 6 5 4 7 10 9 9 9 10 9 6 5
7 9 9 9 12 13 12 10 8 7 10 13 16 18 16 12 11 11 9 7 6 7 10 11 12 10 6 4 5 5 6 7 5 4 7 10 10 10 11 12 11 8 5
13 12 9 8 11 13 14 14 12 10 11 14 17 19 19 17 16 14 10 7 6 6 8 9 12 12 8 4 4 5 6 8 8 5 5 7 10 12 13 11 11 10 7
24 22 16 13 15 16 17 17 14 12 14 16 18 22 24 23 22 18 13 9 7 6 7 8 10 11 8 5 3 3 5 8 10 9 6 6 7 11 11 10 10 9 9
40 38 32 27 26 25 22 20 18 17 17 18 20 26 29 27 24 19 15 13 11 9 8 8 9 8 6 5 3 3 5 8 11 11 10 8 7 8 8 9 10 10 10
53 51 47 44 39 34 28 23 23 23 22 21 24 30 32 29 23 18 17 17 15 12 10 10 9 7 4 3 3 4 5 8 10 10 11 12 10 8 7 8 12 13 13
57 56 54 53 50 43 34 27 27 29 27 24 27 32 34 30 25 21 22 21 17 13 12 11 11 9 5 3 4 7 7 7 7 8 11 14 14 12 9 7 11 16 17
57 57 59 60 58 51 43 34 30 31 29 25 27 32 34 32 29 26 26 25 20 14 12 11 11 12 11 7 7 11 11 8 6 7 10 12 13 14 11 8 11 17 18
54 59 64 66 64 59 51 42 35 32 29 25 25 29 31 32 30 28 28 28 25 17 12 10 9 11 13 11 10 12 13 11 7 5 6 9 11 12 12 11 13 14 14
51 58 66 68 68 63 56 47 38 32 29 27 25 27 29 29 29 27 27 29 28 20 13 9 7 9 11 12 12 13 13 12 8 3 3 7 8 9 10 13 13 12 10